Weather History for Columbus, OH

Change the Weather History Date:

Saturday, April 12, 2014

  Actual Average Record
Temperature  
Mean Temperature 60 °F 52 °F  
Max Temperature 78 °F 62 °F 86 °F (1930)
Min Temperature 42 °F 42 °F 21 °F (1976)
Degree Days  
Heating Degree Days 5 13  
Month to date heating degree days 134 184  
Since 1 July heating degree days 5355 4895  
Cooling Degree Days 0 0  
Month to date cooling degree days 0 0  
Year to date cooling degree days 0 0  
Growing Degree Days 10 (Base 50)    
Moisture  
Dew Point 43 °F    
Average Humidity 54    
Maximum Humidity 83    
Minimum Humidity 25    
Precipitation  
Precipitation 0.00 in 0.12 in 0.66 in (1948)
Month to date precipitation 2.13 1.36  
Year to date precipitation 9.51 9.36  
Snow  
Snow 0.00 in 0.00 in 6.30 in (1973)
Month to date snowfall 0.0 0.7  
Since 1 July snowfall 55.5 26.3  
Snow Depth 0.00 in    
Sea Level Pressure  
Sea Level Pressure 30.06 in    
Wind  
Wind Speed 7 mph (South)    
Max Wind Speed 21 mph    
Max Gust Speed 29 mph    
Visibility 10 miles    
Events      
T = Trace of Precipitation, MM = Missing Value Source: NWS Daily Summary

Daily Weather History Graph

Daily Weather History Graph

Search for Another Location

Airport:

Trip Planner

Search our weather history database for the weather conditions in past years. The results will help you decide how hot, cold, wet, or windy it might be!

Date:

Astronomy

Apr. 12, 2014 Rise Set
Actual Time 6:58 AM EDT 8:06 PM EDT
Civil Twilight 6:30 AM EDT 8:34 PM EDT
Nautical Twilight 5:57 AM EDT 9:08 PM EDT
Astronomical Twilight 5:22 AM EDT 9:43 PM EDT
Moon 5:44 PM EDT (4/12) 5:24 AM EDT (4/12)
Length of Visible Light 14h 04m
Length of Day
13h 08m
Waxing Gibbous, 93% of the Moon is Illuminated
Apr 12
Waxing Gibbous
Apr 15
Full
Apr 22
Last Quarter
Apr 29
New
May 6
First Quarter

Hourly Weather History & Observations

Time (EDT) Temp. Windchill Dew Point Humidity Pressure Visibility Wind Dir Wind Speed Gust Speed Precip Events Conditions
12:51 AM 48.0 °F - 41.0 °F 77% 30.11 in 10.0 mi Calm Calm - N/A   Partly Cloudy
1:51 AM 46.9 °F - 41.0 °F 80% 30.11 in 10.0 mi Calm Calm - N/A   Mostly Cloudy
2:51 AM 46.9 °F - 39.0 °F 74% 30.11 in 10.0 mi Calm Calm - N/A   Scattered Clouds
3:51 AM 44.1 °F - 39.0 °F 82% 30.12 in 10.0 mi Calm Calm - N/A   Scattered Clouds
4:51 AM 44.1 °F - 39.0 °F 82% 30.14 in 10.0 mi Calm Calm - N/A   Partly Cloudy
5:51 AM 43.0 °F 41.3 °F 37.9 °F 82% 30.14 in 10.0 mi East 3.5 mph - N/A   Partly Cloudy
6:51 AM 43.0 °F - 37.9 °F 82% 30.17 in 10.0 mi Calm Calm - N/A   Partly Cloudy
7:51 AM 44.1 °F - 39.0 °F 82% 30.18 in 10.0 mi Calm Calm - N/A   Scattered Clouds
8:51 AM 53.1 °F - 41.0 °F 64% 30.17 in 10.0 mi SSE 4.6 mph - N/A   Partly Cloudy
9:51 AM 59.0 °F - 43.0 °F 55% 30.17 in 10.0 mi South 9.2 mph - N/A   Scattered Clouds
10:51 AM 64.9 °F - 41.0 °F 42% 30.17 in 10.0 mi South 11.5 mph - N/A   Mostly Cloudy
11:51 AM 69.1 °F - 37.0 °F 31% 30.14 in 10.0 mi SSE 10.4 mph 18.4 mph N/A   Mostly Cloudy
12:51 PM 73.0 °F - 36.0 °F 26% 30.10 in 10.0 mi South 15.0 mph 19.6 mph N/A   Partly Cloudy
1:51 PM 73.9 °F - 42.1 °F 32% 30.07 in 10.0 mi South 12.7 mph 20.7 mph N/A   Partly Cloudy
2:51 PM 75.0 °F - 44.1 °F 33% 30.05 in 10.0 mi South 12.7 mph 21.9 mph N/A   Partly Cloudy
3:51 PM 75.9 °F - 46.0 °F 35% 30.01 in 10.0 mi SSW 17.3 mph 21.9 mph N/A   Scattered Clouds
4:51 PM 77.0 °F - 48.0 °F 36% 29.98 in 10.0 mi South 13.8 mph 23.0 mph N/A   Scattered Clouds
5:51 PM 75.9 °F - 48.0 °F 37% 29.97 in 10.0 mi South 11.5 mph - N/A   Mostly Cloudy
6:51 PM 77.0 °F - 48.0 °F 36% 29.95 in 10.0 mi SSW 15.0 mph 23.0 mph N/A   Scattered Clouds
7:51 PM 73.9 °F - 48.9 °F 41% 29.93 in 10.0 mi South 8.1 mph - N/A   Mostly Cloudy
8:51 PM 72.0 °F - 48.9 °F 44% 29.92 in 10.0 mi SSW 6.9 mph - N/A   Mostly Cloudy
9:51 PM 70.0 °F - 48.9 °F 47% 29.91 in 10.0 mi South 4.6 mph - N/A   Mostly Cloudy
10:51 PM 69.1 °F - 48.0 °F 47% 29.90 in 10.0 mi SSE 4.6 mph - N/A   Mostly Cloudy
11:51 PM 66.0 °F - 48.0 °F 52% 29.88 in 10.0 mi South 3.5 mph - N/A   Scattered Clouds